TimeAKDT,TemperatureF,Dew PointF,Humidity,Sea Level PressureIn,VisibilityMPH,Wind Direction,Wind SpeedMPH,Gust SpeedMPH,PrecipitationIn,Events,Conditions,WindDirDegrees,DateUTC
12:53 AM,30.0,30.0,100,29.58,0.8,North,5.8,-,N/A,,Mist,10,2013-09-28 08:53:00
1:53 AM,30.0,30.0,100,29.58,0.8,North,5.8,-,N/A,,Mist,10,2013-09-28 09:53:00
2:43 AM,30.2,30.2,100,29.59,1.0,North,5.8,-,N/A,,Mist,350,2013-09-28 10:43:00
2:53 AM,30.0,30.0,100,29.59,1.5,NNW,4.6,-,N/A,,Overcast,340,2013-09-28 10:53:00
3:07 AM,30.2,30.2,100,29.59,0.8,North,5.8,-,N/A,,Mist,350,2013-09-28 11:07:00
3:14 AM,30.2,30.2,100,29.59,1.0,North,5.8,-,N/A,,Mist,350,2013-09-28 11:14:00
3:53 AM,30.0,30.0,100,29.59,1.0,NNW,8.1,-,N/A,,Mist,340,2013-09-28 11:53:00
4:02 AM,30.2,30.2,100,29.59,0.8,NNW,8.1,-,N/A,,Mist,340,2013-09-28 12:02:00
4:51 AM,30.2,30.2,100,29.59,1.0,NNW,6.9,-,0.00,,Mist,340,2013-09-28 12:51:00
4:53 AM,30.0,30.0,100,29.60,1.0,NNW,6.9,-,0.00,,Mist,340,2013-09-28 12:53:00
5:20 AM,28.4,28.4,100,29.59,0.8,NNW,6.9,-,0.00,,Mist,330,2013-09-28 13:20:00
5:53 AM,28.9,28.9,100,29.60,0.5,NNW,8.1,-,0.01,Fog,Light Freezing Fog,340,2013-09-28 13:53:00
6:53 AM,28.9,28.9,100,29.61,0.8,NNW,8.1,-,N/A,,Mist,330,2013-09-28 14:53:00
9:16 AM,28.4,28.4,100,29.60,1.2,NNW,9.2,-,0.00,Rain,Light Freezing Rain,340,2013-09-28 17:16:00
9:24 AM,28.4,28.4,100,29.60,0.5,NNW,10.4,-,0.00,Fog-Rain,Light Freezing Rain,340,2013-09-28 17:24:00
9:53 AM,28.9,28.9,100,29.60,0.2,NNW,10.4,-,0.00,Fog-Rain,Light Freezing Rain,340,2013-09-28 17:53:00
10:38 AM,30.2,30.2,100,29.61,2.0,North,10.4,-,0.00,Rain,Light Freezing Rain,350,2013-09-28 18:38:00
10:53 AM,30.0,30.0,100,29.61,2.5,North,9.2,-,0.00,,Overcast,350,2013-09-28 18:53:00
11:03 AM,30.2,30.2,100,29.61,7.0,North,11.5,-,N/A,,Overcast,350,2013-09-28 19:03:00
11:34 AM,30.2,30.2,100,29.62,1.8,NNW,8.1,-,0.00,,Overcast,340,2013-09-28 19:34:00
11:44 AM,30.2,30.2,100,29.62,3.0,NNW,8.1,-,0.00,,Overcast,340,2013-09-28 19:44:00
11:53 AM,30.0,30.0,100,29.62,10.0,NNW,9.2,-,0.00,,Overcast,330,2013-09-28 19:53:00
12:07 PM,30.2,30.2,100,29.62,4.0,NNW,10.4,-,0.00,Snow,Light Snow,340,2013-09-28 20:07:00
12:53 PM,30.0,30.0,100,29.63,5.0,NNW,10.4,-,0.00,Snow,Light Snow,340,2013-09-28 20:53:00
1:53 PM,30.0,30.0,100,29.64,10.0,NNW,10.4,-,0.00,,Overcast,340,2013-09-28 21:53:00
3:09 PM,30.2,30.2,100,29.64,1.8,NNW,9.2,-,0.00,Snow,Light Snow,330,2013-09-28 23:09:00
3:19 PM,30.2,30.2,100,29.64,2.0,NNW,6.9,-,0.00,Snow,Light Snow,340,2013-09-28 23:19:00
3:53 PM,30.9,30.9,100,29.65,2.0,North,9.2,-,0.00,Snow,Light Snow,360,2013-09-28 23:53:00
4:05 PM,30.2,30.2,100,29.65,4.0,North,8.1,-,0.00,Snow,Light Snow,10,2013-09-29 00:05:00
4:20 PM,30.2,30.2,100,29.65,1.8,NNE,9.2,-,0.00,Snow,Light Snow,20,2013-09-29 00:20:00
4:40 PM,30.2,30.2,100,29.66,3.0,NNE,10.4,-,0.00,Snow,Light Snow,20,2013-09-29 00:40:00
4:51 PM,30.2,30.2,100,29.66,6.0,NNE,10.4,-,0.00,,Overcast,20,2013-09-29 00:51:00
4:53 PM,30.0,30.0,100,29.67,7.0,NNE,9.2,-,0.00,,Overcast,20,2013-09-29 00:53:00
5:53 PM,30.0,28.9,96,29.69,6.0,North,8.1,-,0.00,Snow,Light Snow,360,2013-09-29 01:53:00
6:14 PM,28.4,28.4,100,29.69,6.0,North,8.1,-,0.00,Snow,Light Snow,360,2013-09-29 02:14:00
6:53 PM,28.9,28.9,100,29.70,10.0,North,6.9,-,0.00,,Overcast,360,2013-09-29 02:53:00
7:49 PM,28.4,28.4,100,29.72,2.5,North,6.9,-,0.00,Snow,Light Snow,350,2013-09-29 03:49:00
7:53 PM,28.9,28.0,96,29.72,2.5,North,5.8,-,0.00,Snow,Light Snow,350,2013-09-29 03:53:00
8:29 PM,28.4,28.4,100,29.72,2.5,North,5.8,-,0.00,Snow,Light Snow,350,2013-09-29 04:29:00
8:34 PM,28.4,28.4,100,29.72,3.0,North,6.9,-,0.00,Snow,Light Snow,350,2013-09-29 04:34:00
8:53 PM,28.9,28.9,100,29.73,4.0,North,6.9,-,0.00,Snow,Light Snow,360,2013-09-29 04:53:00
9:19 PM,28.4,28.4,100,29.73,3.0,North,6.9,-,0.00,Snow,Light Snow,10,2013-09-29 05:19:00
9:51 PM,28.4,28.4,100,29.75,4.0,North,5.8,-,0.00,Snow,Light Snow,10,2013-09-29 05:51:00
9:53 PM,28.0,28.0,100,29.75,3.0,North,5.8,-,0.00,Snow,Light Snow,10,2013-09-29 05:53:00
10:06 PM,28.4,28.4,100,29.75,4.0,North,6.9,-,0.00,Snow,Light Snow,360,2013-09-29 06:06:00
10:19 PM,28.4,28.4,100,29.76,3.0,North,5.8,-,0.00,Snow,Light Snow,10,2013-09-29 06:19:00
10:53 PM,28.0,28.0,100,29.77,4.0,North,5.8,-,0.00,Snow,Light Snow,10,2013-09-29 06:53:00
11:00 PM,28.4,28.4,100,29.76,4.0,North,6.9,-,0.00,Snow,Light Snow,360,2013-09-29 07:00:00
11:25 PM,28.4,28.4,100,29.77,4.0,North,5.8,-,0.00,Snow,Light Snow,10,2013-09-29 07:25:00
11:53 PM,28.0,27.0,96,29.78,6.0,North,5.8,-,0.00,Snow,Light Snow,10,2013-09-29 07:53:00